Regional Weather Roundup
Issued by NWS

Home | Current Version | Previous Version | Text Only | Print | Product List | Glossary Off
Versions: 1 2 3 4 5 6 7 8 9 10 11 12 13 14 15 16 17 18 19 20 21 22 23 24 25 26 27 28 29 30 31 32 33 34 35 36 37 38 39 40 41 42 43 44 45 46 47 48 49 50

635
ASUS43 KMKX 260120
RWRWI

WISCONSIN REGIONAL WEATHER ROUNDUP
NATIONAL WEATHER SERVICE MILWAUKEE/SULLIVAN WI
800 PM CDT THU MAY 25 2017

NOTE: "FAIR" INDICATES FEW OR NO CLOUDS BELOW 12,000 FEET WITH NO
SIGNIFICANT WEATHER AND/OR OBSTRUCTIONS TO VISIBILITY.

WIZ001-002-006>008-014>016-023>028-260200-
NORTHWEST WISCONSIN

CITY           SKY/WX    TMP DP  RH WIND       PRES   REMARKS
SUPERIOR ARPT  NOT AVBL
ASHLAND        MOCLDY    49  43  80 N8        29.70S
HAYWARD        PTCLDY    69  48  47 CALM      29.68R
SIREN          CLOUDY    67  50  55 CALM      29.68R
CUMBERLAND     CLOUDY    63  54  72 CALM      29.68R
RICE LAKE      CLOUDY    67  51  55 SW3       29.69R
CHETEK         CLOUDY    65  53  65 CALM      29.68R
LADYSMITH      CLOUDY    68  50  51 CALM      29.70R
EAU CLAIRE     PTCLDY    68  52  56 SW6       29.66R
MENOMONIE      MOCLDY    68  51  54 S7        29.67R
NEW RICHMOND   PTCLDY    65  50  57 S6        29.68R
OSCEOLA        MOCLDY    67  51  56 S5        29.71R
$$

WIZ003>005-009-010-017-018-260200-
NORTH CENTRAL WISCONSIN

CITY           SKY/WX    TMP DP  RH WIND       PRES   REMARKS
MANITOWISH WTR PTCLDY    66  47  48 CALM      29.69R
ARBOR VITAE    CLEAR     69  48  46 SE3       29.69R
WOODRUFF       CLEAR     69  48  46 SE3       29.69R
RHINELANDER    CLEAR     66  50  56 CALM      29.70R
EAGLE RIVER    CLEAR     66  43  42 SE5       29.70R
LAND O LAKES   CLEAR     67  44  42 E6        29.72R
PHILLIPS       CLOUDY    65  50  57 SE3       29.68R
TOMAHAWK       CLOUDY    62  50  65 CALM      29.70R
MEDFORD        CLEAR     65  50  58 CALM      29.69R
MERRILL        CLOUDY    66  51  59 S3        29.69S
$$

WIZ029-030-035-036-043>047-260200-
CENTRAL WISCONSIN

CITY           SKY/WX    TMP DP  RH WIND       PRES   REMARKS
WAUSAU         CLOUDY    66  50  56 SE3       29.67R
MOSINEE        MOCLDY    66  52  59 CALM      29.70R
MARSHFIELD     CLEAR     66  50  56 S5        29.67S
STEVENS POINT  PTCLDY    65  51  59 SE3       29.69S
WAUPACA        CLEAR     67  52  57 SE5       29.70R
WAUTOMA        CLEAR     68  51  54 SE5       29.70R
WISC RAPIDS    CLEAR     66  53  63 S3        29.69R
CAMP DOUGLAS   CLEAR     66  53  63 SE5       29.68R
$$

WIZ011>013-019>022-031-037>040-048>050-260200-
NORTHEAST WISCONSIN

CITY           SKY/WX    TMP DP  RH WIND       PRES   REMARKS
ANTIGO         PTCLDY    63  54  72 S3        29.71R
SHAWANO        CLEAR     64  52  63 S3        29.70R
OCONTO         CLEAR     62  49  62 E5        29.70R
STURGEON BAY   CLEAR     58  52  80 NE8       29.71R
GREEN BAY      CLEAR     64  53  67 E6        29.70R
MANITOWOC      CLEAR     60  51  72 NE3       29.71R
APPLETON       PTCLDY    66  45  45 NE5       29.69R
CLINTONVILLE   CLEAR     64  48  55 SE5       29.69R
OSHKOSH        CLEAR     65  54  67 SE3       29.70R
$$

WIZ032>034-041-042-053>061-260200-
SOUTHWEST WISCONSIN

CITY           SKY/WX    TMP DP  RH WIND       PRES   REMARKS
LA CROSSE      MOCLDY    70  54  56 S6        29.66R
SPARTA         PTCLDY    67  54  63 CALM      29.69R
VIROQUA        MOCLDY    66  51  58 MISG      29.70R
BOSCOBEL       CLEAR     69  53  56 S3        29.70R
PRAIRIE DU CHI CLEAR     68  51  54 E3        29.68S
PLATTEVILLE    CLEAR     67  56  68 SW3       29.71R
$$

WIZ056-057-062-063-064-067-068-260200-
SOUTH CENTRAL WISCONSIN

CITY           SKY/WX    TMP DP  RH WIND       PRES   REMARKS
REEDSBURG      CLEAR     66  54  64 CALM      29.69R
BARABOO/DELLS  CLEAR     66  51  58 E5        29.69S
LONE ROCK      CLEAR     67  55  65 S3        29.69R
MINERAL POINT  CLEAR     68  55  64 CALM      29.71R
MADISON        PTCLDY    66  50  56 NE3       29.69R
MIDDLETON      CLEAR     67  53  60 E3        29.70S
WATERTOWN      CLEAR     64  52  63 N3        29.69R
MONROE         CLEAR     64  52  63 S5        29.71R
JANESVILLE     PTCLDY    70  48  46 CALM      29.69R
$$

WIZ051-052-058>065-066-070>072-260200-
SOUTHEAST WISCONSIN

CITY           SKY/WX    TMP DP  RH WIND       PRES   REMARKS
MILWAUKEE      PTCLDY    57  52  83 N9        29.70R
WAUKESHA       PTCLDY    61  52  72 E5        29.71R
MILWAUKEE/TIMM CLEAR     61  48  63 NE5       29.71R
RACINE         MOCLDY    55  50  83 N9        29.72R
KENOSHA        CLEAR     58  51  78 NE8       29.71R
FOND DU LAC    CLEAR     65  52  62 E6        29.70R
SHEBOYGAN      CLEAR     58  54  86 NE7       29.70R
WEST BEND      CLEAR     61  52  72 NE5       29.71R
JUNEAU         CLEAR     63  52  66 CALM      29.71R
$$

LSZ147-162-260200-
LAKE SUPERIOR

STATION/POSITION TIME  TEMP    WIND        PRES    WAVE
                       AIR SEA DIR/SP/G            HT/PER
                 (UTC) (F)     (DEG/KT/KT) (MB)    (FT/S)
$$

LMZ867-665-643>646-260200-
LAKE MICHIGAN

STATION/POSITION TIME  TEMP    WIND        PRES    WAVE
                       AIR SEA DIR/SP/G            HT/PER
                 (UTC) (F)     (DEG/KT/KT) (MB)    (FT/S)
$$

TC  - TEMPERATURE IN CELSIUS
VSB - VISIBILITY IN STATUTE MILES
WCI - WIND CHILL INDEX
HX  - HEAT INDEX





USA.gov is the U.S. government's official web portal to all federal, state and local government web resources and services.